Terminal Aerodrome Forecast
Issued by NWS Greer, SC

Home | Current Version | Previous Version | Text Only | Print | Product List | Glossary On
Versions: 1 2 3 4 5 6 7 8 9 10 11 12 13 14 15 16 17 18 19 20 21 22 23 24 25 26 27 28 29 30 31 32 33 34 35 36 37 38 39 40 41 42
937
FTUS42 KGSP 261130
TAFCLT
TAF
KCLT 261130Z 2612/2712 21004KT P6SM FEW060 SCT250
     FM261800 22006KT P6SM BKN060 PROB30 2622/2702 4SM -TSRA
      BKN060CB
     FM270300 23004KT P6SM SCT050=

USA.gov is the U.S. government's official web portal to all federal, state and local government web resources and services.